Time,TemperatureF,DewpointF,PressureIn,WindDirection,WindDirectionDegrees,WindSpeedMPH,WindSpeedGustMPH,Humidity,HourlyPrecipIn,Conditions,Clouds,dailyrainin,SoftwareType,DateUTC
2013-04-30 00:07:00,41.2,35.4,30.08,SSE,157,0.0,0.0,80,0.00,,,0.00,WeatherCatV1.10B1784,2013-04-29 23:07:00,
2013-04-30 00:17:00,40.8,35.4,30.08,NE,45,0.0,0.9,81,0.00,,,0.00,WeatherCatV1.10B1784,2013-04-29 23:17:00,
2013-04-30 00:27:00,40.8,35.7,30.10,South,180,0.0,1.3,82,0.00,,,0.00,WeatherCatV1.10B1784,2013-04-29 23:27:00,
2013-04-30 00:37:00,41.2,36.0,30.09,North,0,0.0,3.1,82,0.00,,,0.00,WeatherCatV1.10B1784,2013-04-29 23:37:00,
2013-04-30 00:47:00,40.8,35.7,30.10,WNW,292,0.0,1.8,82,0.00,,,0.00,WeatherCatV1.10B1784,2013-04-29 23:47:00,
2013-04-30 00:57:00,40.8,35.7,30.11,West,270,0.0,0.0,82,0.00,,,0.00,WeatherCatV1.10B1784,2013-04-29 23:57:00,
2013-04-30 01:07:00,40.8,35.7,30.12,NNE,22,0.0,1.6,82,0.00,,,0.00,WeatherCatV1.10B1784,2013-04-30 00:07:00,
2013-04-30 01:17:00,40.8,35.7,30.12,NE,45,1.8,2.0,82,0.00,,,0.00,WeatherCatV1.10B1784,2013-04-30 00:17:00,
2013-04-30 01:27:00,40.8,35.7,30.13,ESE,112,0.0,0.0,82,0.00,,,0.00,WeatherCatV1.10B1784,2013-04-30 00:27:00,
2013-04-30 01:37:00,40.8,35.7,30.13,WNW,292,0.9,1.3,82,0.00,,,0.00,WeatherCatV1.10B1784,2013-04-30 00:37:00,
2013-04-30 01:47:00,40.8,35.7,30.13,WNW,292,0.0,0.0,82,0.00,,,0.00,WeatherCatV1.10B1784,2013-04-30 00:47:00,
2013-04-30 01:57:00,40.8,35.7,30.14,WNW,292,1.6,1.6,82,0.00,,,0.00,WeatherCatV1.10B1784,2013-04-30 00:57:00,
2013-04-30 02:07:00,40.8,35.7,30.14,WNW,292,0.0,0.0,82,0.00,,,0.00,WeatherCatV1.10B1784,2013-04-30 01:07:00,
2013-04-30 02:17:00,40.8,35.7,30.14,WNW,292,0.0,0.0,82,0.00,,,0.00,WeatherCatV1.10B1784,2013-04-30 01:17:00,
2013-04-30 02:27:00,40.8,35.7,30.15,WNW,292,0.0,0.0,82,0.00,,,0.00,WeatherCatV1.10B1784,2013-04-30 01:27:00,
2013-04-30 02:37:00,40.8,36.0,30.16,WNW,292,0.0,0.0,83,0.00,,,0.00,WeatherCatV1.10B1784,2013-04-30 01:37:00,
2013-04-30 02:47:00,40.6,35.8,30.17,NNW,337,0.0,1.6,83,0.00,,,0.00,WeatherCatV1.10B1784,2013-04-30 01:47:00,
2013-04-30 02:57:00,40.5,35.8,30.17,North,0,0.0,1.1,83,0.00,,,0.00,WeatherCatV1.10B1784,2013-04-30 01:57:00,
2013-04-30 03:17:00,40.1,35.3,30.17,NNW,337,0.0,2.0,83,0.00,,,0.00,WeatherCatV1.10B1784,2013-04-30 02:17:00,
2013-04-30 03:27:00,39.9,35.2,30.17,NNW,337,0.0,0.0,83,0.00,,,0.00,WeatherCatV1.10B1784,2013-04-30 02:27:00,
2013-04-30 03:37:00,39.9,35.2,30.17,NNW,337,0.0,0.0,83,0.00,,,0.00,WeatherCatV1.10B1784,2013-04-30 02:37:00,
2013-04-30 03:47:00,39.9,35.2,30.18,NNW,337,0.0,0.0,83,0.00,,,0.00,WeatherCatV1.10B1784,2013-04-30 02:47:00,
2013-04-30 03:57:00,39.7,35.0,30.18,NNW,337,0.0,0.0,83,0.00,,,0.00,WeatherCatV1.10B1784,2013-04-30 02:57:00,
2013-04-30 04:07:00,39.7,34.8,30.19,NNW,337,0.0,0.0,83,0.00,,,0.00,WeatherCatV1.10B1784,2013-04-30 03:07:00,
2013-04-30 04:17:00,39.6,34.8,30.19,NNW,337,0.0,1.3,83,0.00,,,0.00,WeatherCatV1.10B1784,2013-04-30 03:17:00,
2013-04-30 04:27:00,39.4,34.9,30.19,North,0,0.0,0.0,84,0.00,,,0.00,WeatherCatV1.10B1784,2013-04-30 03:27:00,
2013-04-30 04:37:00,39.4,34.9,30.20,North,0,0.0,1.3,84,0.00,,,0.00,WeatherCatV1.10B1784,2013-04-30 03:37:00,
2013-04-30 04:47:00,39.4,34.9,30.20,North,0,0.0,0.0,84,0.00,,,0.00,WeatherCatV1.10B1784,2013-04-30 03:47:00,
2013-04-30 04:57:00,39.0,34.6,30.21,North,0,0.0,0.0,84,0.00,,,0.00,WeatherCatV1.10B1784,2013-04-30 03:57:00,
2013-04-30 05:07:00,38.5,34.1,30.21,North,0,0.0,0.0,84,0.00,,,0.00,WeatherCatV1.10B1784,2013-04-30 04:07:00,
2013-04-30 05:17:00,37.9,33.5,30.21,North,0,0.0,0.0,84,0.00,,,0.00,WeatherCatV1.10B1784,2013-04-30 04:17:00,
2013-04-30 05:27:00,37.2,32.8,30.21,North,0,0.0,0.9,84,0.00,,,0.00,WeatherCatV1.10B1784,2013-04-30 04:27:00,
2013-04-30 05:37:00,36.7,32.5,30.21,North,0,0.0,0.0,85,0.00,,,0.00,WeatherCatV1.10B1784,2013-04-30 04:37:00,
2013-04-30 05:47:00,36.1,32.3,30.22,North,0,0.0,0.0,86,0.00,,,0.00,WeatherCatV1.10B1784,2013-04-30 04:47:00,
2013-04-30 05:57:00,36.0,32.1,30.23,North,0,0.0,0.0,86,0.00,,,0.00,WeatherCatV1.10B1784,2013-04-30 04:57:00,
2013-04-30 06:07:00,35.8,31.9,30.22,North,0,0.0,0.0,86,0.00,,,0.00,WeatherCatV1.10B1784,2013-04-30 05:07:00,
2013-04-30 06:17:00,36.1,32.6,30.23,North,0,0.0,0.0,87,0.00,,,0.00,WeatherCatV1.10B1784,2013-04-30 05:17:00,
2013-04-30 06:27:00,36.1,32.6,30.23,North,0,0.9,1.8,87,0.00,,,0.00,WeatherCatV1.10B1784,2013-04-30 05:27:00,
2013-04-30 06:37:00,36.3,32.9,30.24,North,0,0.0,0.0,87,0.00,,,0.00,WeatherCatV1.10B1784,2013-04-30 05:37:00,
2013-04-30 06:47:00,36.5,33.2,30.25,North,0,0.0,1.1,88,0.00,,,0.00,WeatherCatV1.10B1784,2013-04-30 05:47:00,
2013-04-30 06:57:00,36.9,33.6,30.24,North,0,0.0,1.1,88,0.00,,,0.00,WeatherCatV1.10B1784,2013-04-30 05:57:00,
2013-04-30 07:07:00,37.2,33.9,30.25,North,0,0.0,0.0,88,0.00,,,0.00,WeatherCatV1.10B1784,2013-04-30 06:07:00,
2013-04-30 07:17:00,37.8,34.5,30.25,North,0,0.0,2.5,88,0.00,,,0.00,WeatherCatV1.10B1784,2013-04-30 06:17:00,
2013-04-30 07:27:00,38.1,34.6,30.25,North,0,0.0,1.3,87,0.00,,,0.00,WeatherCatV1.10B1784,2013-04-30 06:27:00,
2013-04-30 07:37:00,38.5,34.9,30.25,North,0,0.0,0.0,87,0.00,,,0.00,WeatherCatV1.10B1784,2013-04-30 06:37:00,
2013-04-30 07:47:00,39.0,35.2,30.26,NNE,22,2.2,2.2,86,0.00,,,0.00,WeatherCatV1.10B1784,2013-04-30 06:47:00,
2013-04-30 07:57:00,39.7,35.6,30.26,NE,45,0.0,2.0,85,0.00,,,0.00,WeatherCatV1.10B1784,2013-04-30 06:57:00,
2013-04-30 08:07:00,39.9,35.4,30.26,ENE,67,0.0,0.0,84,0.00,,,0.00,WeatherCatV1.10B1784,2013-04-30 07:07:00,
2013-04-30 08:17:00,40.5,35.7,30.26,ENE,67,0.0,0.7,83,0.00,,,0.00,WeatherCatV1.10B1784,2013-04-30 07:17:00,
2013-04-30 08:27:00,40.8,35.7,30.27,ENE,67,0.0,1.3,82,0.00,,,0.00,WeatherCatV1.10B1784,2013-04-30 07:27:00,
2013-04-30 08:37:00,41.2,35.7,30.27,SSW,202,0.0,0.0,81,0.00,,,0.00,WeatherCatV1.10B1784,2013-04-30 07:37:00,
2013-04-30 08:47:00,41.5,35.8,30.27,NNW,337,0.0,0.0,80,0.00,,,0.00,WeatherCatV1.10B1784,2013-04-30 07:47:00,
2013-04-30 08:57:00,42.3,36.2,30.27,West,270,1.1,2.2,79,0.00,,,0.00,WeatherCatV1.10B1784,2013-04-30 07:57:00,
2013-04-30 09:07:00,42.4,36.0,30.27,WSW,247,0.0,2.0,78,0.00,,,0.00,WeatherCatV1.10B1784,2013-04-30 08:07:00,
2013-04-30 09:17:00,43.2,36.1,30.27,East,90,3.1,3.1,76,0.00,,,0.00,WeatherCatV1.10B1784,2013-04-30 08:17:00,
2013-04-30 09:27:00,43.3,34.9,30.27,North,0,0.0,2.2,72,0.00,,,0.00,WeatherCatV1.10B1784,2013-04-30 08:27:00,
2013-04-30 09:37:00,43.9,34.8,30.28,North,0,0.0,1.6,70,0.00,,,0.00,WeatherCatV1.10B1784,2013-04-30 08:37:00,
2013-04-30 09:47:00,44.4,34.9,30.28,North,0,1.1,1.3,69,0.00,,,0.00,WeatherCatV1.10B1784,2013-04-30 08:47:00,
2013-04-30 09:57:00,44.8,34.8,30.28,NW,315,0.0,0.0,68,0.00,,,0.00,WeatherCatV1.10B1784,2013-04-30 08:57:00,
2013-04-30 10:07:00,44.8,34.4,30.27,SSE,157,1.3,1.3,67,0.00,,,0.00,WeatherCatV1.10B1784,2013-04-30 09:07:00,
2013-04-30 10:17:00,45.0,34.6,30.28,South,180,0.0,2.0,67,0.00,,,0.00,WeatherCatV1.10B1784,2013-04-30 09:17:00,
2013-04-30 10:27:00,45.1,34.0,30.28,WSW,247,0.0,0.0,65,0.00,,,0.00,WeatherCatV1.10B1784,2013-04-30 09:27:00,
2013-04-30 10:37:00,45.3,33.8,30.28,SE,135,1.6,2.9,64,0.00,,,0.00,WeatherCatV1.10B1784,2013-04-30 09:37:00,
2013-04-30 10:47:00,45.3,33.4,30.28,North,0,0.0,2.7,63,0.00,,,0.00,WeatherCatV1.10B1784,2013-04-30 09:47:00,
2013-04-30 10:57:00,46.2,33.5,30.28,NNE,22,4.2,5.1,61,0.00,,,0.00,WeatherCatV1.10B1784,2013-04-30 09:57:00,
2013-04-30 11:07:00,46.8,32.7,30.28,NNW,337,0.0,2.0,58,0.00,,,0.00,WeatherCatV1.10B1784,2013-04-30 10:07:00,
2013-04-30 11:17:00,46.8,32.3,30.29,SSE,157,0.0,2.5,57,0.00,,,0.00,WeatherCatV1.10B1784,2013-04-30 10:17:00,
2013-04-30 11:27:00,46.8,31.8,30.29,SE,135,1.1,1.8,56,0.00,,,0.00,WeatherCatV1.10B1784,2013-04-30 10:27:00,
2013-04-30 11:37:00,47.3,31.9,30.29,SE,135,1.3,2.0,55,0.00,,,0.00,WeatherCatV1.10B1784,2013-04-30 10:37:00,
2013-04-30 11:47:00,47.5,31.1,30.29,South,180,0.0,2.9,53,0.00,,,0.00,WeatherCatV1.10B1784,2013-04-30 10:47:00,
2013-04-30 11:57:00,47.8,31.4,30.29,SSE,157,1.6,2.2,53,0.00,,,0.00,WeatherCatV1.10B1784,2013-04-30 10:57:00,
2013-04-30 12:07:00,47.8,30.5,30.29,North,0,0.0,3.1,51,0.00,,,0.00,WeatherCatV1.10B1784,2013-04-30 11:07:00,
2013-04-30 12:17:00,48.0,30.2,30.28,SW,225,0.0,0.0,50,0.00,,,0.00,WeatherCatV1.10B1784,2013-04-30 11:17:00,
2013-04-30 12:27:00,48.2,31.3,30.28,North,0,0.0,3.8,52,0.00,,,0.00,WeatherCatV1.10B1784,2013-04-30 11:27:00,
2013-04-30 12:37:00,48.9,32.0,30.28,WNW,292,0.0,2.2,52,0.00,,,0.00,WeatherCatV1.10B1784,2013-04-30 11:37:00,
2013-04-30 12:47:00,49.5,31.6,30.28,North,0,0.0,2.2,50,0.00,,,0.00,WeatherCatV1.10B1784,2013-04-30 11:47:00,
2013-04-30 12:57:00,50.0,30.1,30.28,North,0,5.6,5.6,46,0.00,,,0.00,WeatherCatV1.10B1784,2013-04-30 11:57:00,
2013-04-30 13:07:00,50.4,29.7,30.27,NNE,22,7.6,7.6,45,0.00,,,0.00,WeatherCatV1.10B1784,2013-04-30 12:07:00,
2013-04-30 13:17:00,50.5,28.8,30.27,North,0,1.1,1.6,43,0.00,,,0.00,WeatherCatV1.10B1784,2013-04-30 12:17:00,
2013-04-30 13:27:00,50.7,27.8,30.27,ENE,67,1.1,1.1,41,0.00,,,0.00,WeatherCatV1.10B1784,2013-04-30 12:27:00,
2013-04-30 13:37:00,51.1,28.3,30.26,North,0,2.0,2.0,41,0.00,,,0.00,WeatherCatV1.10B1784,2013-04-30 12:37:00,
2013-04-30 13:47:00,52.0,27.7,30.26,North,0,2.2,2.7,39,0.00,,,0.00,WeatherCatV1.10B1784,2013-04-30 12:47:00,
2013-04-30 13:57:00,53.8,29.3,30.27,South,180,0.0,0.0,39,0.00,,,0.00,WeatherCatV1.10B1784,2013-04-30 12:57:00,
2013-04-30 14:07:00,55.2,31.3,30.26,NNW,337,0.0,1.3,40,0.00,,,0.00,WeatherCatV1.10B1784,2013-04-30 13:07:00,
2013-04-30 14:17:00,55.6,29.5,30.26,South,180,0.0,1.8,37,0.00,,,0.00,WeatherCatV1.10B1784,2013-04-30 13:17:00,
2013-04-30 14:27:00,54.5,29.9,30.26,South,180,2.0,2.0,39,0.00,,,0.00,WeatherCatV1.10B1784,2013-04-30 13:27:00,
2013-04-30 14:37:00,54.7,30.1,30.25,North,0,0.0,2.0,39,0.00,,,0.00,WeatherCatV1.10B1784,2013-04-30 13:37:00,
2013-04-30 14:47:00,57.0,32.5,30.25,SSE,157,2.2,3.8,39,0.00,,,0.00,WeatherCatV1.10B1784,2013-04-30 13:47:00,
2013-04-30 14:57:00,57.9,32.3,30.25,West,270,0.0,0.0,38,0.00,,,0.00,WeatherCatV1.10B1784,2013-04-30 13:57:00,
2013-04-30 15:07:00,56.5,29.6,30.25,SSE,157,1.1,1.6,36,0.00,,,0.00,WeatherCatV1.10B1784,2013-04-30 14:07:00,
2013-04-30 15:17:00,55.0,30.4,30.25,NNE,22,1.1,1.1,39,0.00,,,0.00,WeatherCatV1.10B1784,2013-04-30 14:17:00,
2013-04-30 15:27:00,55.4,30.8,30.24,SSE,157,0.0,3.6,39,0.00,,,0.00,WeatherCatV1.10B1784,2013-04-30 14:27:00,
2013-04-30 15:37:00,56.8,30.6,30.25,NNW,337,2.0,2.7,37,0.00,,,0.00,WeatherCatV1.10B1784,2013-04-30 14:37:00,
2013-04-30 15:47:00,57.6,31.3,30.25,SSE,157,0.0,3.6,37,0.00,,,0.00,WeatherCatV1.10B1784,2013-04-30 14:47:00,
2013-04-30 15:57:00,56.8,32.1,30.24,SSW,202,2.5,2.5,39,0.00,,,0.00,WeatherCatV1.10B1784,2013-04-30 14:57:00,
2013-04-30 16:07:00,57.4,32.4,30.24,South,180,1.1,3.1,39,0.00,,,0.00,WeatherCatV1.10B1784,2013-04-30 15:07:00,
2013-04-30 16:17:00,58.8,31.7,30.23,NW,315,0.0,3.1,36,0.00,,,0.00,WeatherCatV1.10B1784,2013-04-30 15:17:00,
2013-04-30 16:27:00,59.2,32.0,30.23,NNW,337,1.3,2.0,36,0.00,,,0.00,WeatherCatV1.10B1784,2013-04-30 15:27:00,
2013-04-30 16:37:00,58.3,31.4,30.22,SE,135,1.8,7.8,36,0.00,,,0.00,WeatherCatV1.10B1784,2013-04-30 15:37:00,
2013-04-30 16:57:00,58.6,32.8,30.22,South,180,1.1,6.3,38,0.00,,,0.00,WeatherCatV1.10B1784,2013-04-30 15:57:00,
2013-04-30 17:07:00,56.5,32.4,30.22,South,180,3.4,3.4,40,0.00,,,0.00,WeatherCatV1.10B1784,2013-04-30 16:07:00,
2013-04-30 17:17:00,54.7,33.0,30.21,SE,135,2.5,4.0,44,0.00,,,0.00,WeatherCatV1.10B1784,2013-04-30 16:17:00,
2013-04-30 17:27:00,54.1,33.7,30.21,SSE,157,1.3,7.2,46,0.00,,,0.00,WeatherCatV1.10B1784,2013-04-30 16:27:00,
2013-04-30 17:37:00,55.9,35.5,30.22,SSW,202,0.0,1.3,46,0.00,,,0.00,WeatherCatV1.10B1784,2013-04-30 16:37:00,
2013-04-30 17:47:00,55.6,34.4,30.22,SSE,157,2.2,2.5,45,0.00,,,0.00,WeatherCatV1.10B1784,2013-04-30 16:47:00,
2013-04-30 17:57:00,53.8,33.5,30.22,ESE,112,0.0,4.5,46,0.00,,,0.00,WeatherCatV1.10B1784,2013-04-30 16:57:00,
2013-04-30 18:07:00,52.9,33.7,30.22,West,270,1.3,3.6,48,0.00,,,0.00,WeatherCatV1.10B1784,2013-04-30 17:07:00,
2013-04-30 18:17:00,51.6,34.5,30.22,WNW,292,0.0,0.0,52,0.00,,,0.00,WeatherCatV1.10B1784,2013-04-30 17:17:00,
2013-04-30 18:27:00,51.6,35.4,30.21,SE,135,0.0,2.0,54,0.00,,,0.00,WeatherCatV1.10B1784,2013-04-30 17:27:00,
2013-04-30 18:37:00,52.5,35.3,30.21,South,180,0.0,0.9,52,0.00,,,0.00,WeatherCatV1.10B1784,2013-04-30 17:37:00,
2013-04-30 18:47:00,52.5,34.9,30.22,NW,315,0.0,2.2,51,0.00,,,0.00,WeatherCatV1.10B1784,2013-04-30 17:47:00,
2013-04-30 18:57:00,51.4,33.9,30.22,South,180,0.0,0.0,51,0.00,,,0.00,WeatherCatV1.10B1784,2013-04-30 17:57:00,
2013-04-30 19:07:00,50.7,33.7,30.22,North,0,0.0,2.0,52,0.00,,,0.00,WeatherCatV1.10B1784,2013-04-30 18:07:00,
2013-04-30 19:17:00,50.4,33.9,30.22,South,180,1.3,3.1,53,0.00,,,0.00,WeatherCatV1.10B1784,2013-04-30 18:17:00,
2013-04-30 19:27:00,50.4,33.2,30.22,SSW,202,2.7,4.7,52,0.00,,,0.00,WeatherCatV1.10B1784,2013-04-30 18:27:00,
2013-04-30 19:37:00,50.2,33.2,30.22,SE,135,0.0,0.0,52,0.00,,,0.00,WeatherCatV1.10B1784,2013-04-30 18:37:00,
2013-04-30 19:47:00,49.6,33.2,30.21,SE,135,0.0,3.1,53,0.00,,,0.00,WeatherCatV1.10B1784,2013-04-30 18:47:00,
2013-04-30 19:57:00,49.3,33.3,30.21,SE,135,0.0,1.1,54,0.00,,,0.00,WeatherCatV1.10B1784,2013-04-30 18:57:00,
2013-04-30 20:07:00,48.9,33.4,30.21,SW,225,2.2,2.2,55,0.00,,,0.00,WeatherCatV1.10B1784,2013-04-30 19:07:00,
2013-04-30 20:17:00,48.7,33.7,30.21,South,180,0.0,0.0,56,0.00,,,0.00,WeatherCatV1.10B1784,2013-04-30 19:17:00,
2013-04-30 20:27:00,48.7,34.1,30.21,South,180,0.0,2.2,57,0.00,,,0.00,WeatherCatV1.10B1784,2013-04-30 19:27:00,
2013-04-30 20:37:00,48.6,34.3,30.21,West,270,0.9,0.9,58,0.00,,,0.00,WeatherCatV1.10B1784,2013-04-30 19:37:00,
2013-04-30 20:47:00,47.7,33.6,30.21,WSW,247,0.0,0.0,58,0.00,,,0.00,WeatherCatV1.10B1784,2013-04-30 19:47:00,
2013-04-30 20:57:00,46.9,33.2,30.21,WSW,247,0.0,0.0,59,0.00,,,0.00,WeatherCatV1.10B1784,2013-04-30 19:57:00,
2013-04-30 21:07:00,45.7,32.6,30.21,WSW,247,0.0,0.0,60,0.00,,,0.00,WeatherCatV1.10B1784,2013-04-30 20:07:00,
2013-04-30 21:17:00,45.1,32.5,30.21,WSW,247,0.0,1.8,61,0.00,,,0.00,WeatherCatV1.10B1784,2013-04-30 20:17:00,
2013-04-30 21:27:00,44.4,31.8,30.21,WSW,247,0.0,1.1,61,0.00,,,0.00,WeatherCatV1.10B1784,2013-04-30 20:27:00,
2013-04-30 21:37:00,43.7,31.5,30.22,WSW,247,0.0,0.0,62,0.00,,,0.00,WeatherCatV1.10B1784,2013-04-30 20:37:00,
2013-04-30 21:47:00,43.0,31.2,30.22,WSW,247,0.0,0.0,63,0.00,,,0.00,WeatherCatV1.10B1784,2013-04-30 20:47:00,
2013-04-30 21:57:00,41.9,30.2,30.22,WSW,247,0.0,0.0,63,0.00,,,0.00,WeatherCatV1.10B1784,2013-04-30 20:57:00,
2013-04-30 22:07:00,41.4,30.6,30.22,WSW,247,0.0,1.3,65,0.00,,,0.00,WeatherCatV1.10B1784,2013-04-30 21:07:00,
2013-04-30 22:17:00,41.0,30.9,30.22,WSW,247,0.0,0.0,67,0.00,,,0.00,WeatherCatV1.10B1784,2013-04-30 21:17:00,
2013-04-30 22:27:00,40.6,30.9,30.22,WSW,247,0.0,0.0,68,0.00,,,0.00,WeatherCatV1.10B1784,2013-04-30 21:27:00,
2013-04-30 22:37:00,39.9,30.5,30.22,WSW,247,0.0,0.9,69,0.00,,,0.00,WeatherCatV1.10B1784,2013-04-30 21:37:00,
2013-04-30 22:47:00,39.6,30.6,30.22,WSW,247,0.9,1.1,70,0.00,,,0.00,WeatherCatV1.10B1784,2013-04-30 21:47:00,
2013-04-30 22:57:00,39.0,30.4,30.22,WSW,247,0.0,0.0,71,0.00,,,0.00,WeatherCatV1.10B1784,2013-04-30 21:57:00,
2013-04-30 23:07:00,39.0,30.4,30.22,WSW,247,0.0,0.0,71,0.00,,,0.00,WeatherCatV1.10B1784,2013-04-30 22:07:00,
2013-04-30 23:17:00,38.5,29.9,30.22,WSW,247,0.0,0.0,71,0.00,,,0.00,WeatherCatV1.10B1784,2013-04-30 22:17:00,
2013-04-30 23:27:00,38.1,29.9,30.21,WSW,247,0.0,0.0,72,0.00,,,0.00,WeatherCatV1.10B1784,2013-04-30 22:27:00,
2013-04-30 23:37:00,38.1,30.2,30.21,WSW,247,0.0,0.7,73,0.00,,,0.00,WeatherCatV1.10B1784,2013-04-30 22:37:00,
2013-04-30 23:47:00,38.5,30.5,30.21,WSW,247,0.0,1.6,73,0.00,,,0.00,WeatherCatV1.10B1784,2013-04-30 22:47:00,
2013-04-30 23:57:00,39.7,31.4,30.21,WSW,247,0.0,0.0,72,0.00,,,0.00,WeatherCatV1.10B1784,2013-04-30 22:57:00,